星链-2599 (STARLINK-2599 )

导读 | 豆包AI

STARLINK-2599是美国太空探索技术公司SpaceX星链Starlink星座的第二十五批次组网卫星,于2021年5月4日发射升空。作为低轨互联网卫星,它承担着为全球提供高速宽带互联网接入服务的任务,尤其服务偏远地区和网络基础设施薄弱区域。 该星在轨道运行约三年多后,已在2024年8月7日再入地球大气层完成陨落,是星链星座迭代更新过程中完成生命周期的一员,体现了Starlink系统持续更新部署的特点。

Basic Information
目录编号:
48383
目录名称:
STARLINK-2599
国际标识:
2021-038AG
轨道中心:
EARTH
卫星名称:
星链-2599
卫星全名:
星链-2599 (STARLINK-2599 )
卫星状态:
已陨落 最后检测时间 2024-08-07
发射日期:
2021-05-04 UTC
国别 :
美国 (US)
星等 :
--
Orbit Information
数据来源 国际轨道数据
星历时间: 2024-08-07T15:52:16+0800
轨道信息已过期630天
半长轴: 6583.092km
偏心率: 0.0013183
轨道倾角: 53.031°
近地点辐角 307.192°
升交点赤经 3.038°
平近点角 157.708°
近地点: 196.278km
远地点: 213.636km
周期: 88.594分钟
每日圈数: 16.253912
Detailed Information
固有亮度:
5
最大亮度:
2.5
卫星平台:
Starlink V1.0
覆盖范围:
全球
运营商:
太空探索技术公司
运营商所在国:
美国
制造商(研发单位):
太空探索技术公司
制造商所在国:
美国
使用方式:
暂无
Satellite Introduction
星链(Starlink)计划是由太空探索技术公司(SpaceX)提出的一个巨型低轨卫星互联网星座项目,计划在2019年至2024年间在太空搭建由约1.2万颗卫星组成的“星链”网络,其中1584颗将部署在地球上空550千米处的近地轨道,并从2020年开始工作。该卫星仍在工作。